Location: Unspecified
(52.4292°N, 19.3359°E)
Time: 16:09:26
(UTC+01:00)

A-11 Canister half - Pass Details

Date: 17 October 2025
Orbit: 1526 x 1682 km, 47.3° (Epoch: 13 November)

Event Time Altitude Azimuth Distance (km) Brightness Sun altitude
Exits shadow 02:38:46 33° 126° (SE) 2,344 9.9 -39.4°
Drops below altitude 10° 02:45:19 10° 83° (E) 3,698 11.5 -38.7°
Sets 02:48:40 0° 76° (ENE) 4,688 12.3 -38.3°
